TimeCST,TemperatureF,Dew PointF,Humidity,Sea Level PressureIn,VisibilityMPH,Wind Direction,Wind SpeedMPH,Gust SpeedMPH,PrecipitationIn,Events,Conditions,WindDirDegrees,DateUTC
12:52 AM,34.0,19.0,54,30.12,10.0,SSE,5.8,-,N/A,,Clear,160,2012-12-05 06:52:00
1:52 AM,30.9,19.9,64,30.10,10.0,Calm,Calm,-,N/A,,Clear,0,2012-12-05 07:52:00
2:52 AM,30.9,19.0,61,30.09,10.0,SW,5.8,-,N/A,,Clear,220,2012-12-05 08:52:00
3:52 AM,30.0,19.9,66,30.09,10.0,SW,4.6,-,N/A,,Clear,230,2012-12-05 09:52:00
4:52 AM,28.9,19.9,69,30.06,10.0,SW,5.8,-,N/A,,Clear,230,2012-12-05 10:52:00
5:52 AM,32.0,21.0,64,30.04,10.0,SW,4.6,-,N/A,,Clear,230,2012-12-05 11:52:00
6:52 AM,32.0,23.0,69,30.04,10.0,Calm,Calm,-,N/A,,Clear,0,2012-12-05 12:52:00
8:52 AM,30.0,24.1,79,29.99,10.0,South,4.6,-,N/A,,Clear,180,2012-12-05 14:52:00
9:52 AM,43.0,27.0,53,29.96,10.0,SSW,10.4,-,N/A,,Clear,210,2012-12-05 15:52:00
10:52 AM,53.1,25.0,34,29.91,10.0,SSW,13.8,-,N/A,,Clear,200,2012-12-05 16:52:00
11:52 AM,57.0,24.1,28,29.85,10.0,SSW,13.8,-,N/A,,Clear,210,2012-12-05 17:52:00
12:52 PM,60.1,25.0,26,29.79,10.0,SSW,13.8,-,N/A,,Clear,210,2012-12-05 18:52:00
1:52 PM,66.9,24.1,20,29.75,10.0,SW,21.9,26.5,N/A,,Clear,230,2012-12-05 19:52:00
2:52 PM,66.9,27.0,22,29.72,10.0,SW,19.6,-,N/A,,Clear,230,2012-12-05 20:52:00
3:52 PM,66.0,30.0,26,29.72,10.0,WSW,16.1,-,N/A,,Clear,240,2012-12-05 21:52:00
4:52 PM,57.9,32.0,37,29.73,10.0,SW,10.4,-,N/A,,Clear,220,2012-12-05 22:52:00
5:52 PM,53.1,32.0,45,29.72,10.0,SW,13.8,-,N/A,,Clear,220,2012-12-05 23:52:00
6:52 PM,52.0,32.0,47,29.72,10.0,SW,11.5,-,N/A,,Clear,230,2012-12-06 00:52:00
7:52 PM,50.0,32.0,50,29.75,10.0,SSW,9.2,-,N/A,,Clear,210,2012-12-06 01:52:00
8:52 PM,53.1,32.0,45,29.75,10.0,WNW,4.6,-,N/A,,Mostly Cloudy,300,2012-12-06 02:52:00
9:52 PM,52.0,34.0,50,29.75,10.0,West,5.8,-,N/A,,Overcast,260,2012-12-06 03:52:00
10:52 PM,54.0,36.0,51,29.75,10.0,WNW,10.4,-,N/A,,Overcast,300,2012-12-06 04:52:00
11:52 PM,55.9,34.0,44,29.78,10.0,NNW,9.2,-,N/A,,Overcast,330,2012-12-06 05:52:00